When you browse on this site, cookies collect data to enhance your experience and personalize the content and advertising you see.
Visit our Privacy Policy to learn more. By continuing to use the site, you agree to this use of cookies and data.
  • In Österreich
  • Länderverzeichnis
  • Für 7 Tage
  • Wassertemperatur
  • Satellitenkarten
  • Wetterkarte
  • News
  • Widgets
  • user-avatar
    Anmelden

    Stündliche Wetter Kapan

    Heute, 26 Juni, Mittwoch

    Zeit Temperatur Niederschläge Wind Luftdruck Luftfeuchtigkeit
    00:00 +24°C° 0 mm 2 m/S 685 mmHg 51%
    01:00 +24°C° 0 mm 2 m/S 685 mmHg 51%
    02:00 +24°C° 0 mm 2 m/S 685 mmHg 51%
    03:00 +24°C° 0 mm 2 m/S 684 mmHg 52%
    04:00 +24°C° 0 mm 2 m/S 685 mmHg 52%
    05:00 +25°C° 0 mm 1 m/S 685 mmHg 52%
    06:00 +26°C° 0 mm 1 m/S 686 mmHg 52%
    07:00 +27°C° 0 mm 1 m/S 686 mmHg 46%
    08:00 +29°C° 0 mm 2 m/S 686 mmHg 41%
    09:00 +30°C° 0 mm 2 m/S 686 mmHg 35%
    10:00 +31°C° 0 mm 2 m/S 687 mmHg 34%
    11:00 +33°C° 0 mm 3 m/S 687 mmHg 33%
    12:00 +33°C° 0 mm 3 m/S 687 mmHg 31%
    13:00 +34°C° 0 mm 3 m/S 686 mmHg 31%
    14:00 +34°C° 0 mm 3 m/S 686 mmHg 31%
    15:00 +34°C° 0 mm 3 m/S 685 mmHg 31%
    16:00 +34°C° 0 mm 3 m/S 685 mmHg 34%
    17:00 +33°C° 0 mm 3 m/S 685 mmHg 37%
    18:00 +31°C° 0 mm 3 m/S 685 mmHg 41%
    19:00 +29°C° 0 mm 2 m/S 685 mmHg 45%
    20:00 +26°C° 0 mm 2 m/S 684 mmHg 48%
    21:00 +24°C° 0 mm 1 m/S 684 mmHg 52%
    22:00 +24°C° 0 mm 1 m/S 684 mmHg 53%
    23:00 +23°C° 0 mm 1 m/S 684 mmHg 53%

    Morgen, 27 Juni, Donnerstag

    Zeit Temperatur Niederschläge Wind Luftdruck Luftfeuchtigkeit
    00:00 +23°C° 0 mm 1 m/S 684 mmHg 54%
    01:00 +23°C° 0 mm 1 m/S 684 mmHg 54%
    02:00 +23°C° 0 mm 1 m/S 684 mmHg 53%
    03:00 +23°C° 0 mm 1 m/S 684 mmHg 53%
    04:00 +23°C° 0 mm 1 m/S 684 mmHg 55%
    05:00 +23°C° 0 mm 1 m/S 684 mmHg 57%
    06:00 +24°C° 0 mm 1 m/S 684 mmHg 59%
    07:00 +25°C° 0 mm 1 m/S 684 mmHg 55%
    08:00 +26°C° 0 mm 2 m/S 684 mmHg 51%
    09:00 +27°C° 0 mm 2 m/S 684 mmHg 47%
    10:00 +28°C° 0 mm 3 m/S 684 mmHg 46%
    11:00 +29°C° 0 mm 3 m/S 684 mmHg 45%
    12:00 +30°C° 0 mm 3 m/S 683 mmHg 43%
    13:00 +30°C° 0.1 mm 3 m/S 683 mmHg 43%
    14:00 +31°C° 0.1 mm 3 m/S 682 mmHg 43%
    15:00 +32°C° 0.1 mm 4 m/S 682 mmHg 43%
    16:00 +30°C° 0.1 mm 3 m/S 682 mmHg 45%
    17:00 +30°C° 0.1 mm 3 m/S 682 mmHg 47%
    18:00 +29°C° 0.1 mm 3 m/S 681 mmHg 50%
    19:00 +27°C° 0.1 mm 2 m/S 681 mmHg 57%
    20:00 +25°C° 0.1 mm 2 m/S 681 mmHg 63%
    21:00 +23°C° 0.1 mm 1 m/S 681 mmHg 70%
    22:00 +22°C° 0.1 mm 1 m/S 681 mmHg 72%
    23:00 +21°C° 0.1 mm 2 m/S 681 mmHg 73%

    übermorgen, 28 Juni, Freitag

    Zeit Temperatur Niederschläge Wind Luftdruck Luftfeuchtigkeit
    00:00 +21°C° 0.1 mm 2 m/S 680 mmHg 74%
    01:00 +21°C° 0 mm 1 m/S 680 mmHg 75%
    02:00 +21°C° 0 mm 1 m/S 680 mmHg 75%
    03:00 +21°C° 0 mm 1 m/S 679 mmHg 75%
    04:00 +22°C° 0.1 mm 1 m/S 680 mmHg 73%
    05:00 +22°C° 0.1 mm 1 m/S 680 mmHg 72%
    06:00 +23°C° 0.1 mm 1 m/S 680 mmHg 70%
    07:00 +24°C° 0.1 mm 1 m/S 680 mmHg 65%
    08:00 +26°C° 0.1 mm 1 m/S 680 mmHg 59%
    09:00 +27°C° 0.1 mm 2 m/S 680 mmHg 54%
    10:00 +28°C° 0.1 mm 2 m/S 679 mmHg 51%
    11:00 +30°C° 0.1 mm 3 m/S 679 mmHg 48%
    12:00 +31°C° 0.1 mm 3 m/S 679 mmHg 44%
    13:00 +31°C° 0.2 mm 3 m/S 678 mmHg 44%
    14:00 +31°C° 0.2 mm 3 m/S 678 mmHg 43%
    15:00 +33°C° 0.2 mm 4 m/S 677 mmHg 43%
    16:00 +31°C° 0.4 mm 3 m/S 677 mmHg 47%
    17:00 +30°C° 0.4 mm 3 m/S 677 mmHg 51%
    18:00 +28°C° 0.4 mm 3 m/S 677 mmHg 56%
    19:00 +27°C° 0.6 mm 2 m/S 677 mmHg 62%
    20:00 +25°C° 0.6 mm 2 m/S 677 mmHg 68%
    21:00 +24°C° 0.6 mm 1 m/S 677 mmHg 75%
    22:00 +23°C° 0.1 mm 1 m/S 677 mmHg 75%
    23:00 +23°C° 0.1 mm 1 m/S 677 mmHg 75%

    29 Juni, Samstag

    Zeit Temperatur Niederschläge Wind Luftdruck Luftfeuchtigkeit
    00:00 +22°C° 0.1 mm 1 m/S 677 mmHg 75%
    01:00 +22°C° 0 mm 1 m/S 677 mmHg 74%
    02:00 +22°C° 0 mm 1 m/S 676 mmHg 72%
    03:00 +22°C° 0 mm 1 m/S 676 mmHg 71%
    04:00 +23°C° 0 mm 1 m/S 676 mmHg 69%
    05:00 +24°C° 0 mm 1 m/S 677 mmHg 67%
    06:00 +23°C° 0 mm 0 m/S 677 mmHg 65%
    07:00 +26°C° 0 mm 1 m/S 677 mmHg 61%
    08:00 +27°C° 0 mm 2 m/S 677 mmHg 57%
    09:00 +29°C° 0 mm 2 m/S 677 mmHg 54%
    10:00 +30°C° 0.2 mm 3 m/S 677 mmHg 51%
    11:00 +30°C° 0.2 mm 3 m/S 677 mmHg 48%
    12:00 +31°C° 0.2 mm 3 m/S 677 mmHg 45%
    13:00 +33°C° 0.2 mm 3 m/S 677 mmHg 44%
    14:00 +33°C° 0.2 mm 3 m/S 676 mmHg 42%
    15:00 +34°C° 0.2 mm 3 m/S 676 mmHg 41%
    16:00 +33°C° 0.1 mm 3 m/S 676 mmHg 44%
    17:00 +31°C° 0.1 mm 3 m/S 676 mmHg 47%
    18:00 +30°C° 0.1 mm 3 m/S 675 mmHg 50%
    19:00 +28°C° 0 mm 2 m/S 676 mmHg 57%
    20:00 +26°C° 0 mm 2 m/S 677 mmHg 62%
    21:00 +24°C° 0 mm 1 m/S 677 mmHg 68%
    22:00 +24°C° 0.4 mm 1 m/S 677 mmHg 71%
    23:00 +23°C° 0.4 mm 1 m/S 677 mmHg 74%

    30 Juni, Sonntag

    Zeit Temperatur Niederschläge Wind Luftdruck Luftfeuchtigkeit
    00:00 +22°C° 0.4 mm 1 m/S 677 mmHg 77%
    01:00 +22°C° 0.2 mm 1 m/S 677 mmHg 81%
    02:00 +21°C° 0.2 mm 1 m/S 678 mmHg 86%
    03:00 +20°C° 0.2 mm 1 m/S 678 mmHg 90%
    04:00 +21°C° 0 mm 1 m/S 678 mmHg 90%
    05:00 +21°C° 0 mm 1 m/S 678 mmHg 89%
    06:00 +21°C° 0 mm 1 m/S 678 mmHg 88%
    07:00 +22°C° 0.1 mm 1 m/S 678 mmHg 83%
    08:00 +23°C° 0.1 mm 1 m/S 678 mmHg 79%
    09:00 +24°C° 0.1 mm 2 m/S 678 mmHg 75%
    10:00 +25°C° 0.1 mm 2 m/S 678 mmHg 70%
    11:00 +26°C° 0.1 mm 2 m/S 678 mmHg 65%
    12:00 +28°C° 0.1 mm 3 m/S 678 mmHg 60%
    13:00 +28°C° 0.1 mm 3 m/S 678 mmHg 57%
    14:00 +29°C° 0.1 mm 3 m/S 678 mmHg 55%
    15:00 +29°C° 0.1 mm 3 m/S 677 mmHg 53%
    16:00 +28°C° 0.1 mm 3 m/S 677 mmHg 57%
    17:00 +28°C° 0.1 mm 3 m/S 677 mmHg 61%
    18:00 +27°C° 0.1 mm 4 m/S 677 mmHg 65%
    19:00 +25°C° 0 mm 3 m/S 677 mmHg 72%
    20:00 +24°C° 0 mm 2 m/S 678 mmHg 80%
    21:00 +23°C° 0 mm 2 m/S 678 mmHg 88%
    22:00 +21°C° 0.1 mm 2 m/S 678 mmHg 90%
    23:00 +21°C° 0.1 mm 2 m/S 678 mmHg 91%

    1 Juli, Montag

    Zeit Temperatur Niederschläge Wind Luftdruck Luftfeuchtigkeit
    00:00 +21°C° 0.1 mm 2 m/S 678 mmHg 93%
    01:00 +20°C° 0.2 mm 2 m/S 678 mmHg 94%
    02:00 +20°C° 0.2 mm 3 m/S 679 mmHg 94%
    03:00 +19°C° 0.2 mm 3 m/S 679 mmHg 95%
    04:00 +19°C° 0.1 mm 2 m/S 679 mmHg 94%
    05:00 +18°C° 0.1 mm 2 m/S 679 mmHg 94%
    06:00 +18°C° 0.1 mm 2 m/S 679 mmHg 93%
    07:00 +18°C° 0 mm 2 m/S 679 mmHg 91%
    08:00 +18°C° 0 mm 2 m/S 679 mmHg 89%
    09:00 +19°C° 0 mm 2 m/S 679 mmHg 87%
    10:00 +19°C° 0 mm 2 m/S 679 mmHg 85%
    11:00 +19°C° 0 mm 2 m/S 678 mmHg 83%
    12:00 +19°C° 0 mm 2 m/S 678 mmHg 81%
    13:00 +19°C° 0 mm 2 m/S 678 mmHg 79%
    14:00 +20°C° 0 mm 3 m/S 678 mmHg 78%
    15:00 +20°C° 0 mm 3 m/S 678 mmHg 76%
    16:00 +19°C° 0 mm 2 m/S 678 mmHg 79%
    17:00 +19°C° 0 mm 2 m/S 678 mmHg 81%
    18:00 +18°C° 0 mm 2 m/S 678 mmHg 83%
    19:00 +17°C° 0 mm 2 m/S 678 mmHg 85%
    20:00 +18°C° 0 mm 1 m/S 679 mmHg 86%
    21:00 +18°C° 0 mm 1 m/S 680 mmHg 88%
    22:00 +16°C° 0 mm 1 m/S 680 mmHg 88%
    23:00 +16°C° 0 mm 1 m/S 680 mmHg 88%
    Mehr zeigen